• Join FlightAware (Why Join?)
  • Login
  • US Flag 
10:57AM EST


 

Airport Tracker/Info


-or-


 

Live Flight TrackerFlight Track Log ✈ RPA3159 ✈ 08-May-2013 ✈ KBTV - KPHL

Flight Track Log - Related Links

Times and Time Zones

All times are in EDT time to prevent confusion due to time zone crossing. See the RPA3159 flight status page for this flight to view local times or setup timezone preferences in your user account.

Time Position Orientation Groundspeed Altitude Reporting Facility
EDT Latitude Longitude Course Direction KTS MPH feet Rate Location/Type
01:28PM 44.3256 -73.1683 197° South 274 315 7,700  Level Boston Center
01:29PM 44.2464 -73.2022 197° South 279 321 11,400 2,900 Climbing Boston Center
01:30PM 44.1689 -73.2331 196° South 291 335 13,500 2,450 Climbing Boston Center
01:31PM 44.0853 -73.2667 196° South 304 350 16,300 2,750 Climbing Boston Center
01:32PM 43.9956 -73.3031 196° South 324 373 19,000 2,450 Climbing Boston Center
01:33PM 43.9056 -73.3419 197° South 330 380 21,200 2,150 Climbing Boston Center
01:34PM 43.8117 -73.3808 197° South 348 400 23,300 2,000 Climbing Boston Center
01:35PM 43.7111 -73.4225 197° South 363 418 25,200 1,350 Climbing Boston Center
01:36PM 43.6108 -73.4608 195° South 371 427 26,000 400 Climbing Boston Center
01:37PM 43.5106 -73.5022 197° South 376 433 26,000  Level Boston Center
01:38PM 43.4081 -73.5403 195° South 381 438 26,000  Level Boston Center
01:39PM 43.3075 -73.5814 197° South 381 438 26,000  Level Boston Center
01:40PM 43.2050 -73.6250 197° South 381 438 26,000  Level Boston Center
01:41PM 43.1128 -73.6603 196° South 381 438 26,000  Level Boston Center
01:42PM 43.0125 -73.6981 195° South 381 438 26,000  Level Boston Center
01:43PM 42.9119 -73.7414 198° South 376 433 26,000  Level Boston Center
01:44PM 42.8114 -73.7817 196° South 381 438 26,000  Level Boston Center
01:45PM 42.7208 -73.8531 210° Southwest 381 438 26,000  Level Boston Center
01:46PM 42.6608 -73.9789 237° Southwest 381 438 26,000  Level Boston Center
01:47PM 42.6031 -74.1014 237° Southwest 387 445 26,000  Level Boston Center
01:48PM 42.5447 -74.2267 238° Southwest 392 451 26,000  Level Boston Center
01:49PM 42.4844 -74.3461 236° Southwest 392 451 26,000  Level Boston Center
01:50PM 42.4239 -74.4681 236° Southwest 392 451 26,000  Level Boston Center
01:51PM 42.3633 -74.5897 236° Southwest 392 451 26,000 -450 Level Boston Center
01:52PM 42.2925 -74.7022 230° Southwest 392 451 25,100 -950 Descending Boston Center
01:53PM 42.2133 -74.8033 223° Southwest 393 452 24,100 -1,200 Descending Boston Center
01:56PM 42.0469 -75.0272 225° Southwest 391 450 21,200 -1,469 Descending New York Center
01:57PM 41.9706 -75.1225 223° Southwest 391 450 19,300 -1,109 Descending New York Center
01:58PM 41.8800 -75.2058 214° Southwest 371 427 19,000 -303 Descending New York Center
01:59PM 41.8050 -75.2647 210° Southwest 362 417 18,700 -843 Descending New York Center
02:00PM 41.7256 -75.3289 211° Southwest 348 400 17,300 -1,550 Descending New York Center
02:01PM 41.6439 -75.3956 211° Southwest 320 368 15,600 -1,537 Descending New York Center
02:02PM 41.5686 -75.4542 210° Southwest 320 368 14,200 -1,438 Descending New York Center
02:03PM 41.4956 -75.5125 211° Southwest 320 368 12,700 -1,109 Descending New York Center
02:04PM 41.4289 -75.5661 211° Southwest 320 368 12,000 -350 Descending New York Center
02:05PM 41.3533 -75.6269 211° Southwest 320 368 12,000  Level New York Center
02:06PM 41.2761 -75.6850 209° Southwest 320 368 12,000  Level New York Center
02:07PM 41.1883 -75.6894 182° South 293 337 12,000  Level New York Center
02:08PM 41.1050 -75.6889 180° South 298 343 12,000  Level New York Center
02:09PM 41.0219 -75.6858 178° South 298 343 12,000  Level New York Center
02:10PM 40.9467 -75.6886 182° South 298 343 12,000  Level New York Center
02:11PM 40.8550 -75.6875 179° South 303 349 12,000  Level New York Center
02:12PM 40.7742 -75.6817 177° South 303 349 12,000  Level New York Center
02:13PM 40.7011 -75.6297 152° Southeast 298 343 12,000 -458 Level New York Center
02:14PM 40.6386 -75.5789 148° Southeast 298 343 11,100 -934 Descending New York Center
02:15PM 40.5619 -75.5189 149° Southeast 298 343 10,100 -496 Descending New York Center
02:16PM 40.4972 -75.4681 149° Southeast 289 333 10,100 -50 Level New York Center
02:17PM 40.4325 -75.4200 151° Southeast 273 314 10,000 -397 Descending New York Center
02:18PM 40.3667 -75.3964 165° South 273 314 9,300 -610 Descending New York Center
02:19PM 40.2931 -75.4133 190° South 266 306 8,800 -857 Descending New York Center
02:20PM 40.2131 -75.4325 190° South 266 306 7,600 -942 Descending New York Center
02:21PM 40.1456 -75.4522 193° South 277 319 6,900 -650 Descending New York Center
02:22PM 40.0678 -75.4689 189° South 271 312 6,300 -645 Descending New York Center
02:23PM 39.9983 -75.4858 191° South 266 306 5,600 -645 Descending New York Center
02:24PM 39.9458 -75.4983 190° South 247 284 5,000 -800 Descending New York Center
02:25PM 39.8881 -75.5378 208° Southwest 210 242 4,000 -508 Descending New York Center
02:26PM 39.8467 -75.5756 215° Southwest 199 229 4,000 -233 Level New York Center
02:26PM 39.8167 -75.5833 191° South 171 197 3,600 -571 Descending Philadelphia TRACON
02:27PM 39.8167 -75.5167 90° East 174 200 3,000 -400 Descending Philadelphia TRACON
02:28PM 39.8333 -75.4500 72° East 172 198 2,800 -550 Descending Philadelphia TRACON
02:29PM 39.8333 -75.4000 90° East 173 199 1,900 -895 Descending Philadelphia TRACON
02:30PM 39.8500 -75.3500 67° East 141 162 1,100 -889 Descending Philadelphia TRACON